Simultaneous Nadir Overpasses (SNOs) Predictions

Prediction of SNOs between AQUA and METOP-A Satellite Orbit:

Table of predicted SNOs for the next 14.0 days since TLE Epoch: 4/10/2015
Index Date (AQUA) Time (AQUA) Lat,Lon (AQUA) SZA (AQUA ) Date (METOP-A) Time (METOP-A) Lat,Lon (METOP-A) SZA (METOP-A ) Distance(km) Time Diff (sec)
1 04/10/2015 20:28:32 -73.82, 47.36 114.25 04/10/2015 20:27:30 -73.82, 47.27 114.23 2.74 62
2 04/10/2015 21:18:01 73.89,-145.17 65.82 04/10/2015 21:18:08 73.90,-145.22 65.83 1.48 7
3 04/10/2015 22:07:33 -74.22, 21.72 113.84 04/10/2015 22:08:43 -74.24, 22.96 113.87 37.66 70
4 04/13/2015 16:02:49 -73.82, 113.78 115.28 04/13/2015 16:01:49 -73.84, 113.72 115.25 3.05 60
5 04/13/2015 16:52:18 73.90, -78.76 64.80 04/13/2015 16:52:27 73.91, -78.78 64.81 1.12 9
6 04/13/2015 17:41:52 -74.33, 87.90 114.76 04/13/2015 17:43:01 -74.31, 89.54 114.84 49.27 69
7 04/16/2015 11:37:07 -73.86,-179.87 116.26 04/16/2015 11:36:09 -73.85,-179.85 116.26 1.32 58
8 04/16/2015 12:26:35 73.89, -12.32 63.77 04/16/2015 12:26:47 73.92, -12.35 63.80 2.72 12
9 04/16/2015 13:16:11 -74.42, 154.11 115.68 04/16/2015 13:17:19 -74.42, 156.22 115.75 63.03 68
10 04/19/2015 07:11:23 -73.83,-113.39 117.27 04/19/2015 07:10:29 -73.85,-113.43 117.25 2.44 54
11 04/19/2015 08:00:52 73.93, 54.04 62.82 04/19/2015 08:01:07 73.92, 54.06 62.81 1.22 15
12 04/19/2015 08:50:30 -74.55,-139.77 116.53 04/19/2015 08:51:36 -74.56,-136.98 116.60 82.58 66
13 04/22/2015 02:45:38 -73.85, -46.98 118.23 04/22/2015 02:44:48 -73.84, -47.03 118.22 1.65 50
14 04/22/2015 03:35:06 73.89, 120.55 61.82 04/22/2015 03:35:26 73.91, 120.46 61.83 3.42 20




NCC Satellite Simultaneous Nadir Overpasses (SNOs) Prediction Service
